Location: Berg
(47.2344°N, 9.5296°E)
Time: 22:27:35
(UTC+00:00)

Cosmos 1898 Rocket - Pass Details

Date: 24 January 2021
Orbit: 754 x 783 km, 74.0° (Epoch: 03 March)

Event Time Altitude Azimuth Distance (km) Brightness Sun altitude
Rises 17:31:25 0° 184° (S) 3,236 7.0 -13.4°
Reaches altitude 10° 17:33:52 10° 178° (S) 2,309 6.1 -13.8°
Maximum altitude 17:38:53 48° 105° (ESE) 994 3.7 -14.6°
Enters shadow 17:43:12 14° 35° (NE) 2,051 5.3 -15.4°
